Content
SEND FEEDBACK

Daily
Averages
Monthly
Summary
Mexico

VALLE DE BANDERAS, NAYARIT


Home > North America > Mexico > Nayarit
Elevation: 177 feet     Latitude: 20 48N     Longitude: 105 14W

WEATHER
 
SELECT A DAY
Number of Records: 162,424;   Date Range: 1/1/95 - 9/22/14
 
SHARE

PRINT THIS DATA

[ ← Previous Day ]
WEATHER ALMANAC - JANUARY 31, 2013
[ Next Day → ]
[ °C ]   °F
Weather ElementAverageHighLow
Temperature72 °F80.6 °F (4:46 pm)60.8 °F (6:46 am)
Dewpoint64.1 °F69.8 °F (6:40 pm)59 °F (5:48 am)
Humidity77.3 %94 % (3:45 am)54 % (11:43 am)
Barometer29.92 in30.00 in (11:44 pm)29.89 in (2:45 am)
Wind Speed1.5 mph8.1 mph (12:48 pm)
Weather ElementAverage
Visibility12.6 mi
Wind DirectionENE (53.9 °)

Weather ElementTotal
Precipitation---
Cooling Degree Days5.7 (Base 65)
Growing Degree Days20.7 (Base 50)
Averaged from 23 records on January 31, 2013
WEATHER CONDITIONS BREAKOUT
WIND DIRECTION BREAKOUT
WEATHER BY HOUR - JANUARY 31, 2013
[ °C ]   °F
Local TimeTemperatureDewpointHumidityBarometerVisibilityWind DirectionWind SpeedGust SpeedPrecipitationEventsConditions
1:52 AM66.2 °F62.6 °F88 %29.90 in10.0 miCalmScattered Clouds
2:45 AM66.2 °F62.6 °F88 %29.89 in10.0 miCalmScattered Clouds
3:45 AM64.4 °F62.6 °F94 %29.89 in10.0 miCalmMostly Cloudy
4:45 AM62.6 °F60.8 °F94 %29.89 in10.0 miCalmMostly Cloudy
5:48 AM62.6 °F59.0 °F88 %29.89 in10.0 miCalmMostly Cloudy
6:46 AM60.8 °F59.0 °F94 %29.90 in10.0 miCalmMostly Cloudy
7:47 AM60.8 °F59.0 °F94 %29.90 in15.0 miCalmMostly Cloudy
8:50 AM64.4 °F59.0 °F83 %29.92 in15.0 miCalmMostly Cloudy
9:43 AM69.8 °F60.8 °F73 %29.95 in15.0 miCalmOvercast
10:57 AM77.0 °F62.6 °F61 %29.95 in15.0 miCalmMostly Cloudy
11:43 AM78.8 °F60.8 °F54 %29.94 in15.0 miCalmMostly Cloudy
12:48 PM77.0 °F64.4 °F65 %29.94 in15.0 miSSW (200°)8.1 mphMostly Cloudy
1:43 PM78.8 °F64.4 °F61 %29.93 in15.0 miCalmMostly Cloudy
2:49 PM77.0 °F64.4 °F65 %29.89 in15.0 miSW (220°)3.5 mphMostly Cloudy
3:42 PM78.8 °F64.4 °F61 %29.90 in15.0 miSSW (210°)4.6 mphMostly Cloudy
4:46 PM80.6 °F64.4 °F58 %29.90 in15.0 miSSW (210°)5.8 mphScattered Clouds
5:41 PM77.0 °F66.2 °F69 %29.89 in15.0 miSSW (200°)6.9 mphPartly Cloudy
6:40 PM75.2 °F69.8 °F83 %29.90 in15.0 miSSW (200°)5.8 mphMostly Cloudy
7:48 PM77.0 °F69.8 °F78 %29.95 in10.0 miCalmOvercast
8:40 PM75.2 °F68.0 °F78 %29.97 in10.0 miCalmOvercast
9:43 PM75.2 °F69.8 °F83 %29.99 in10.0 miCalmOvercast
10:44 PM75.2 °F69.8 °F83 %29.98 in10.0 miCalmOvercast
11:44 PM75.2 °F69.8 °F83 %30.00 in10.0 miCalmMostly Cloudy
Hourly data recorded from MMPR, located miles away from Valle de Banderas, Nayarit







STORIES FROM OUR PARTNERS